Back to catalog

FENGYUN 1C DEB

AlivePO
NORAD 32360·DEBRIS·🇨🇳 China

Launched May 10, 1999 from Taiyuan Satellite Launch Center

Loading…

Next Passes (next 24 hours)

TLE

AgingSource: Space-Track

Epoch: Sep 6, 2026, 16:25 UTC

1 32360U 99025CZD 26249.68419743  .00002553  00000-0  14026-2 0  9994
2 32360  98.1275  42.0242 0221997 268.0714  89.5018 14.00775602685653

Track FENGYUN 1C DEB in real time with AllMySat

Download on the App Store